This demonstration page uses our WeatherBlox Daily Observations layout. Learn more.

Left ArrowRight Arrow

41.86663, -103.66717

Hourly Observations for July 26, 2018

Temp ( °F °C ) Dew Point ( °F °C ) Humidity (%) Winds ( mph kmh ) Pressure ( in mb ) Visibility ( mi km ) Precip ( " mm )
12:53 am 00:53 Cloudy 66 18.9 66 18.9 100 100 NW 3 6 30.15 1021 10 16.0934 N/A
1:53 am 01:53 Clear 62 16.7 57 13.9 84 84 ENE 10 17 30.13 1020 10 16.0934 N/A
2:53 am 02:53 Mostly Cloudy 62 16.7 58 14.4 86 86 SSW 6 9 30.11 1020 10 16.0934 N/A
3:53 am 03:53 Mostly Clear 60 15.6 60 15.6 100 100 NNE 9 15 30.13 1020 10 16.0934 N/A
4:53 am 04:53 Partly Cloudy 59 15 59 15 100 100 NNW 5 7 30.15 1021 10 16.0934 N/A
5:53 am 05:53 Sunny 58 14.4 58 14.4 100 100 W 6 9 30.15 1021 10 16.0934 N/A
6:53 am 06:53 Sunny 60 15.6 59 15 96 96 NW 6 9 30.16 1021 10 16.0934 N/A
7:53 am 07:53 Sunny 64 17.8 60 15.6 87 87 WNW 6 9 30.16 1021 10 16.0934 N/A
8:53 am 08:53 Sunny 68 20 59 15 73 73 WNW 3 6 30.16 1021 10 16.0934 N/A
9:53 am 09:53 Sunny 71 21.7 60 15.6 68 68 WSW 5 7 30.15 1021 10 16.0934 N/A
10:53 am 10:53 Sunny 75 23.9 62 16.7 64 64 S 3 6 30.14 1021 10 16.0934 N/A
11:53 am 11:53 Mostly Sunny 78 25.6 62 16.7 58 58 NE 6 9 30.13 1020 10 16.0934 N/A
12:51 pm 12:51 Mostly Cloudy with Thunderstorms 75 24 61 16 61 61 NNE 3 6 30.03 1017 10 16.0934 N/A
12:53 pm 12:53 Mostly Cloudy with Thunderstorms 76 24.4 60 15.6 58 58 NNE 5 7 30.16 1021 10 16.0934 N/A
1:47 pm 13:47 Cloudy with Light Rain 70 21 64 18 83 83 VRB 7 11 29.97 1015 10 16.0934 0.05 1.27
1:53 pm 13:53 Mostly Cloudy with Light Rain 69 20.6 63 17.2 81 81 NE 25 41 30.1 1019 10 16.0934 0.05 1.27
2:09 pm 14:09 Mostly Sunny 74 23.3 62 16.7 67 67 ENE 10 17 29.97 1015 10 16.0934 N/A
2:53 pm 14:53 Sunny 77 25 59 15 54 54 ENE 10 17 30.09 1019 10 16.0934 N/A
3:53 pm 15:53 Sunny 79 26.1 60 15.6 52 52 SE 3 6 30.06 1018 10 16.0934 N/A
4:53 pm 16:53 Sunny 81 27.2 61 16.1 51 51 ESE 5 7 30.06 1018 10 16.0934 N/A
5:53 pm 17:53 Sunny 77 25 62 16.7 60 60 S 7 11 30.07 1018 10 16.0934 N/A
6:23 pm 18:23 Partly Cloudy with Nearby Thunderstorms 76 24.4 64 17.8 67 67 N N/A 29.91 1013 10 16.0934 N/A
6:39 pm 18:39 Mostly Cloudy with Light Rain 74 23.3 64 17.8 71 71 WNW 3 6 29.97 1015 10 16.0934 N/A
6:50 pm 18:50 Cloudy with Nearby Thunderstorms 72 22 64 18 78 78 WSW 6 9 29.97 1015 9 14.48406 N/A
6:53 pm 18:53 Cloudy with Nearby Thunderstorms 72 22.2 65 18.3 79 79 W 7 11 30.11 1020 9 14.48406 0.01 0.254
7:09 pm 19:09 Cloudy with Thunderstorms 62 16.7 58 14.4 86 86 NNW 14 22 30.12 1020 7 11.26538 N/A
7:21 pm 19:21 Cloudy with Thunderstorms 64 17.8 57 13.9 78 78 SE 20 31 30.03 1017 2 3.21868 0.09 2.286
7:30 pm 19:30 Cloudy with Light Thunderstorms 63 17 59 15 88 88 E 10 17 29.97 1015 5 8.0467 N/A
7:48 pm 19:48 Partly Cloudy with Nearby Thunderstorms 64 18 59 15 83 83 E 9 15 30 1016 10 16.0934 N/A
7:53 pm 19:53 Mostly Sunny 65 18.3 59 15 81 81 E 9 15 30.1 1019 10 16.0934 0.1 2.54
8:53 pm 20:53 Clear 61 16.1 60 15.6 97 97 ENE 7 11 30.1 1019 10 16.0934 N/A
9:53 pm 21:53 Clear 61 16.1 60 15.6 97 97 SSE 5 7 30.13 1020 10 16.0934 N/A
10:53 pm 22:53 Partly Cloudy 60 15.6 60 15.6 100 100 N 5 7 30.13 1020 10 16.0934 N/A
11:53 pm 23:53 Mostly Cloudy 61 16.1 61 16.1 100 100 WSW 9 15 30.15 1021 10 16.0934 N/A

Powered by AerisWeather